,,,PA_Meas_PMT16A,,PR_Meas_QMR101_102,,RH_Meas_QMH101,,SR_Meas_QMS101,,TA_Meas_QMH101,,GenWind,,GenWind,
date,time,status,PA,status,PR,status,RH,status,SR,status,TA,status,DirAvg,status,SpdAvg,
2010-06-10, 00:00:04,VALID,1001.2,VALID,0,VALID,88.7249,VALID,0,VALID,23.7402,VALID,71,VALID,0.680859,
2010-06-10, 00:01:04,VALID,1001.22,VALID,0,VALID,88.3739,VALID,0,VALID,23.7207,VALID,56,VALID,0.758984,
2010-06-10, 00:02:04,VALID,1001.21,VALID,0,VALID,88.2289,VALID,0,VALID,23.7207,VALID,56,VALID,0.769922,
2010-06-10, 00:03:04,VALID,1001.23,VALID,0,VALID,88.1832,VALID,0,VALID,23.6817,VALID,56,VALID,0.779688,
2010-06-10, 00:04:04,VALID,1001.23,VALID,0,VALID,88.5951,VALID,0,VALID,23.6604,VALID,56,VALID,0.622266,
2010-06-10, 00:05:04,VALID,1001.17,VALID,0,VALID,88.5189,VALID,0,VALID,23.6214,VALID,56,VALID,0.507422,
2010-06-10, 00:06:04,VALID,1001.16,VALID,0,VALID,88.6409,VALID,0,VALID,23.6019,VALID,56,VALID,0.45625,
2010-06-10, 00:07:04,VALID,1001.16,VALID,0,VALID,88.7096,VALID,0.112286,VALID,23.5433,VALID,56,VALID,0.5125,
2010-06-10, 00:08:04,VALID,1001.17,VALID,0,VALID,89.587,VALID,0,VALID,23.5238,VALID,56,VALID,0.630469,
2010-06-10, 00:09:04,VALID,1001.17,VALID,0,VALID,89.6175,VALID,0.112286,VALID,23.4848,VALID,37,VALID,0.808594,
2010-06-10, 00:10:04,VALID,1001.19,VALID,0,VALID,90.4034,VALID,0,VALID,23.4653,VALID,21,VALID,1.08203,
2010-06-10, 00:11:04,VALID,1001.2,VALID,0,VALID,90.5712,VALID,0.112286,VALID,23.4458,VALID,21,VALID,0.878125,
2010-06-10, 00:12:04,VALID,1001.18,VALID,0,VALID,90.823,VALID,0,VALID,23.4263,VALID,21,VALID,0.621094,
2010-06-10, 00:13:04,VALID,1001.16,VALID,0,VALID,90.9222,VALID,0,VALID,23.4067,VALID,21,VALID,0.383203,
2010-06-10, 00:14:04,VALID,1001.16,VALID,0,VALID,91.0214,VALID,0,VALID,23.4067,VALID,19,VALID,0.35,
2010-06-10, 00:15:04,VALID,1001.17,VALID,0,VALID,91.0748,VALID,0.112286,VALID,23.4067,VALID,19,VALID,0.399219,
2010-06-10, 00:16:04,VALID,1001.16,VALID,0,VALID,91.1358,VALID,0,VALID,23.4263,VALID,19,VALID,0.451953,
2010-06-10, 00:17:04,VALID,1001.16,VALID,0,VALID,91.1206,VALID,0.112286,VALID,23.4263,VALID,19,VALID,0.548828,
2010-06-10, 00:18:04,VALID,1001.16,VALID,0,VALID,91.2197,VALID,0.112286,VALID,23.4458,VALID,356,VALID,0.506641,
2010-06-10, 00:19:04,VALID,1001.14,VALID,0,VALID,91.2045,VALID,0,VALID,23.4475,VALID,352,VALID,0.330469,
2010-06-10, 00:20:04,VALID,1001.16,VALID,0,VALID,91.2426,VALID,0,VALID,23.4475,VALID,352,VALID,0.201953,
2010-06-10, 00:21:04,VALID,1001.11,VALID,0,VALID,91.2884,VALID,0,VALID,23.4085,VALID,352,VALID,0.163281,
2010-06-10, 00:22:04,VALID,1001.09,VALID,0,VALID,91.3037,VALID,0,VALID,23.428,VALID,352,VALID,0,
2010-06-10, 00:23:04,VALID,1001.09,VALID,0,VALID,91.3418,VALID,0,VALID,23.4085,VALID,352,VALID,0,
2010-06-10, 00:24:04,VALID,1001.08,VALID,0,VALID,91.3876,VALID,0,VALID,23.4085,VALID,352,VALID,0.177734,
2010-06-10, 00:25:04,VALID,1001.04,VALID,0,VALID,91.4944,VALID,0,VALID,23.389,VALID,352,VALID,0.279687,
2010-06-10, 00:26:04,VALID,1001.01,VALID,0,VALID,91.5249,VALID,0,VALID,23.389,VALID,352,VALID,0.316406,
2010-06-10, 00:27:04,VALID,1001,VALID,0,VALID,91.5478,VALID,0,VALID,23.389,VALID,352,VALID,0.347656,
2010-06-10, 00:28:04,VALID,1000.98,VALID,0,VALID,91.6241,VALID,0,VALID,23.389,VALID,352,VALID,0.363281,
2010-06-10, 00:29:04,VALID,1000.93,VALID,0,VALID,91.7233,VALID,0,VALID,23.389,VALID,352,VALID,0.390234,
2010-06-10, 00:30:04,VALID,1000.91,VALID,0,VALID,91.7843,VALID,0,VALID,23.389,VALID,352,VALID,0.505469,
2010-06-10, 00:31:04,VALID,1000.91,VALID,0,VALID,91.8225,VALID,0,VALID,23.389,VALID,338,VALID,0.490625,
2010-06-10, 00:32:04,VALID,1000.89,VALID,0,VALID,91.8301,VALID,0,VALID,23.428,VALID,338,VALID,0.369531,
2010-06-10, 00:33:04,VALID,1000.89,VALID,0,VALID,91.7614,VALID,0,VALID,23.4475,VALID,338,VALID,0.403125,
2010-06-10, 00:34:04,VALID,1000.85,VALID,0,VALID,91.6623,VALID,0,VALID,23.4671,VALID,338,VALID,0.364844,
2010-06-10, 00:35:04,VALID,1000.86,VALID,0,VALID,91.5936,VALID,0,VALID,23.4866,VALID,338,VALID,0.294141,
2010-06-10, 00:36:04,VALID,1000.84,VALID,0,VALID,91.4486,VALID,0,VALID,23.5256,VALID,338,VALID,0.233984,
2010-06-10, 00:37:04,VALID,1000.78,VALID,0,VALID,91.3113,VALID,0,VALID,23.5256,VALID,338,VALID,0.154297,
2010-06-10, 00:38:04,VALID,1000.79,VALID,0,VALID,91.2655,VALID,0,VALID,23.5256,VALID,338,VALID,0.219922,
2010-06-10, 00:39:04,VALID,1000.77,VALID,0,VALID,91.2731,VALID,0,VALID,23.5061,VALID,338,VALID,0.136328,
2010-06-10, 00:40:04,VALID,1000.78,VALID,0,VALID,91.2884,VALID,0,VALID,23.4866,VALID,338,VALID,0.157422,
2010-06-10, 00:41:04,VALID,1000.8,VALID,0,VALID,91.3342,VALID,0,VALID,23.4866,VALID,338,VALID,0,
2010-06-10, 00:42:04,VALID,1000.77,VALID,0,VALID,91.3723,VALID,0,VALID,23.4671,VALID,338,VALID,0,
2010-06-10, 00:43:04,VALID,1000.82,VALID,0,VALID,91.4334,VALID,0,VALID,23.4263,VALID,338,VALID,0.302734,
2010-06-10, 00:44:04,VALID,1000.86,VALID,0,VALID,91.3189,VALID,0,VALID,23.4085,VALID,338,VALID,0.470703,
2010-06-10, 00:45:04,VALID,1000.86,VALID,0,VALID,91.4563,VALID,0,VALID,23.389,VALID,338,VALID,0.469922,
2010-06-10, 00:46:04,VALID,1000.85,VALID,0,VALID,91.6928,VALID,0,VALID,23.35,VALID,338,VALID,0.545313,
2010-06-10, 00:47:04,VALID,1000.83,VALID,0,VALID,91.7843,VALID,0,VALID,23.3305,VALID,338,VALID,0.476563,
2010-06-10, 00:48:04,VALID,1000.84,VALID,0,VALID,91.586,VALID,0,VALID,23.2915,VALID,338,VALID,0.51875,
2010-06-10, 00:49:04,VALID,1000.84,VALID,0,VALID,91.7767,VALID,0,VALID,23.2507,VALID,338,VALID,0.516406,
2010-06-10, 00:50:04,VALID,1000.89,VALID,0,VALID,91.6241,VALID,0,VALID,23.2134,VALID,338,VALID,0.451172,
2010-06-10, 00:51:04,VALID,1000.88,VALID,0,VALID,91.4791,VALID,0,VALID,23.1744,VALID,338,VALID,0.533984,
2010-06-10, 00:52:04,VALID,1000.9,VALID,0,VALID,91.3494,VALID,0,VALID,23.1549,VALID,338,VALID,0.508594,
2010-06-10, 00:53:04,VALID,1000.89,VALID,0,VALID,91.4715,VALID,0,VALID,23.0964,VALID,338,VALID,0.248047,
2010-06-10, 00:54:04,VALID,1000.83,VALID,0,VALID,91.5173,VALID,0,VALID,23.0573,VALID,338,VALID,0.00546875,
2010-06-10, 00:55:04,VALID,1000.84,VALID,0,VALID,91.6851,VALID,0,VALID,23.0573,VALID,338,VALID,0,
2010-06-10, 00:56:04,VALID,1000.83,VALID,0,VALID,91.9293,VALID,0,VALID,23.0573,VALID,338,VALID,0,
2010-06-10, 00:57:04,VALID,1000.82,VALID,0,VALID,92.0743,VALID,0,VALID,23.0769,VALID,338,VALID,0,
2010-06-10, 00:58:04,VALID,1000.83,VALID,0,VALID,92.1429,VALID,0,VALID,23.0964,VALID,338,VALID,0,
2010-06-10, 00:59:04,VALID,1000.8,VALID,0,VALID,92.1887,VALID,0,VALID,23.1176,VALID,338,VALID,0,
2010-06-10, 01:00:04,VALID,1000.79,VALID,0,VALID,92.1887,VALID,0,VALID,23.1159,VALID,338,VALID,0,
2010-06-10, 01:01:04,VALID,1000.79,VALID,0,VALID,92.1963,VALID,0,VALID,23.1354,VALID,338,VALID,0,
2010-06-10, 01:02:04,VALID,1000.81,VALID,0,VALID,92.2421,VALID,0,VALID,23.1549,VALID,338,VALID,0,
2010-06-10, 01:03:04,VALID,1000.79,VALID,0,VALID,92.265,VALID,0,VALID,23.1549,VALID,338,VALID,0,
2010-06-10, 01:04:04,VALID,1000.81,VALID,0,VALID,92.204,VALID,0,VALID,23.1336,VALID,338,VALID,0.288672,
2010-06-10, 01:05:04,VALID,1000.78,VALID,0,VALID,92.0132,VALID,0,VALID,23.1354,VALID,338,VALID,0.498828,
2010-06-10, 01:06:04,VALID,1000.79,VALID,0,VALID,91.9598,VALID,0,VALID,23.1354,VALID,338,VALID,0.476563,
2010-06-10, 01:07:04,VALID,1000.73,VALID,0,VALID,91.998,VALID,0,VALID,23.1159,VALID,338,VALID,0.542578,
2010-06-10, 01:08:04,VALID,1000.72,VALID,0,VALID,91.9751,VALID,0,VALID,23.1159,VALID,338,VALID,0.469531,
2010-06-10, 01:09:04,VALID,1000.73,VALID,0,VALID,92.0285,VALID,0,VALID,23.1336,VALID,338,VALID,0.383984,
2010-06-10, 01:10:04,VALID,1000.71,VALID,0,VALID,91.9217,VALID,0,VALID,23.1549,VALID,338,VALID,0.485938,
2010-06-10, 01:11:04,VALID,1000.73,VALID,0,VALID,91.7385,VALID,0,VALID,23.1354,VALID,346,VALID,0.80625,
2010-06-10, 01:12:04,VALID,1000.72,VALID,0,VALID,91.7614,VALID,0,VALID,23.0964,VALID,17,VALID,0.960156,
2010-06-10, 01:13:04,VALID,1000.72,VALID,0,VALID,91.7691,VALID,0,VALID,23.0769,VALID,22,VALID,0.945703,
2010-06-10, 01:14:04,VALID,1000.71,VALID,0,VALID,91.5783,VALID,0,VALID,23.0378,VALID,23,VALID,0.669531,
2010-06-10, 01:15:04,VALID,1000.69,VALID,0,VALID,91.5326,VALID,0,VALID,22.9988,VALID,23,VALID,0.625781,
2010-06-10, 01:16:04,VALID,1000.67,VALID,0,VALID,91.8683,VALID,0,VALID,22.9793,VALID,23,VALID,0.723828,
2010-06-10, 01:17:04,VALID,1000.71,VALID,0,VALID,92.2726,VALID,0,VALID,22.9988,VALID,41,VALID,0.736719,
2010-06-10, 01:18:04,VALID,1000.7,VALID,0,VALID,92.5473,VALID,0,VALID,23.0378,VALID,51,VALID,0.821875,
2010-06-10, 01:19:04,VALID,1000.7,VALID,0,VALID,92.5854,VALID,0,VALID,23.0573,VALID,58,VALID,0.878906,
2010-06-10, 01:20:04,VALID,1000.66,VALID,0,VALID,92.3871,VALID,0,VALID,23.0769,VALID,70,VALID,0.957812,
2010-06-10, 01:21:04,VALID,1000.65,VALID,0,VALID,92.1429,VALID,0,VALID,23.1159,VALID,74,VALID,1.00391,
2010-06-10, 01:22:04,VALID,1000.63,VALID,0,VALID,91.8759,VALID,0,VALID,23.1336,VALID,74,VALID,0.854297,
2010-06-10, 01:23:04,VALID,1000.62,VALID,0,VALID,91.7462,VALID,0,VALID,23.1744,VALID,74,VALID,0.833594,
2010-06-10, 01:24:04,VALID,1000.61,VALID,0,VALID,91.708,VALID,0,VALID,23.2134,VALID,74,VALID,0.967578,
2010-06-10, 01:25:04,VALID,1000.58,VALID,0,VALID,91.7767,VALID,0,VALID,23.2134,VALID,74,VALID,0.90625,
2010-06-10, 01:26:04,VALID,1000.54,VALID,0,VALID,91.9064,VALID,0,VALID,23.2329,VALID,74,VALID,0.916797,
2010-06-10, 01:27:04,VALID,1000.55,VALID,0,VALID,91.9827,VALID,0,VALID,23.2329,VALID,74,VALID,0.773047,
2010-06-10, 01:28:04,VALID,1000.52,VALID,0,VALID,91.9827,VALID,0,VALID,23.2524,VALID,75,VALID,0.753516,
2010-06-10, 01:29:04,VALID,1000.5,VALID,0,VALID,91.914,VALID,0,VALID,23.2329,VALID,75,VALID,0.687109,
2010-06-10, 01:30:04,VALID,1000.5,VALID,0,VALID,91.792,VALID,0,VALID,23.2134,VALID,75,VALID,0.591406,
2010-06-10, 01:31:04,VALID,1000.48,VALID,0,VALID,91.7462,VALID,0,VALID,23.1939,VALID,75,VALID,0.532031,
2010-06-10, 01:32:04,VALID,1000.46,VALID,0,VALID,91.7843,VALID,0,VALID,23.1939,VALID,75,VALID,0.379297,
2010-06-10, 01:33:04,VALID,1000.48,VALID,0,VALID,91.7691,VALID,0,VALID,23.1726,VALID,75,VALID,0.315234,
2010-06-10, 01:34:04,VALID,1000.45,VALID,0,VALID,91.7233,VALID,0,VALID,23.1939,VALID,75,VALID,0.192969,
2010-06-10, 01:35:04,VALID,1000.45,VALID,0,VALID,91.6928,VALID,0,VALID,23.1939,VALID,75,VALID,0.309375,
2010-06-10, 01:36:04,VALID,1000.47,VALID,0,VALID,91.6546,VALID,0,VALID,23.1744,VALID,75,VALID,0.484375,
2010-06-10, 01:37:04,VALID,1000.42,VALID,0,VALID,91.6241,VALID,0,VALID,23.1549,VALID,30,VALID,0.766406,
2010-06-10, 01:38:04,VALID,1000.41,VALID,0,VALID,91.8148,VALID,0,VALID,23.1354,VALID,30,VALID,0.751172,
2010-06-10, 01:39:04,VALID,1000.37,VALID,0,VALID,91.9522,VALID,0,VALID,23.1354,VALID,30,VALID,0.726172,
2010-06-10, 01:40:04,VALID,1000.4,VALID,0,VALID,91.8759,VALID,0,VALID,23.1354,VALID,30,VALID,0.726953,
2010-06-10, 01:41:04,VALID,1000.4,VALID,0,VALID,91.7462,VALID,0,VALID,23.1159,VALID,30,VALID,0.653516,
2010-06-10, 01:42:04,VALID,1000.41,VALID,0,VALID,91.7004,VALID,0,VALID,23.0964,VALID,30,VALID,0.526172,
2010-06-10, 01:43:04,VALID,1000.39,VALID,0,VALID,91.8759,VALID,0,VALID,23.0361,VALID,31,VALID,0.521875,
2010-06-10, 01:44:04,VALID,1000.41,VALID,0,VALID,91.9293,VALID,0,VALID,23.0378,VALID,31,VALID,0.457812,
2010-06-10, 01:45:04,VALID,1000.39,VALID,0,VALID,92.0056,VALID,0,VALID,23.0183,VALID,31,VALID,0.444531,
2010-06-10, 01:46:04,VALID,1000.4,VALID,0,VALID,91.9598,VALID,0,VALID,23.0183,VALID,31,VALID,0.111719,
2010-06-10, 01:47:04,VALID,1000.41,VALID,0,VALID,91.9598,VALID,0,VALID,22.9793,VALID,31,VALID,0.00195313,
2010-06-10, 01:48:04,VALID,1000.41,VALID,0,VALID,92.0132,VALID,0,VALID,22.9385,VALID,31,VALID,0.0171875,
2010-06-10, 01:49:04,VALID,1000.4,VALID,0,VALID,92.1048,VALID,0,VALID,22.9403,VALID,31,VALID,0.111719,
2010-06-10, 01:50:04,VALID,1000.38,VALID,0,VALID,92.2268,VALID,0,VALID,22.9403,VALID,31,VALID,0.240625,
2010-06-10, 01:51:04,VALID,1000.35,VALID,0,VALID,92.3489,VALID,0,VALID,22.9403,VALID,31,VALID,0.356641,
2010-06-10, 01:52:04,VALID,1000.35,VALID,0,VALID,92.4863,VALID,0,VALID,22.919,VALID,31,VALID,0.414453,
2010-06-10, 01:53:04,VALID,1000.33,VALID,0,VALID,92.5244,VALID,0,VALID,22.9598,VALID,31,VALID,0.494141,
2010-06-10, 01:54:04,VALID,1000.31,VALID,0,VALID,92.5549,VALID,0,VALID,22.9598,VALID,31,VALID,0.579297,
2010-06-10, 01:55:04,VALID,1000.35,VALID,0,VALID,92.5854,VALID,0,VALID,22.9598,VALID,31,VALID,0.649219,
2010-06-10, 01:56:04,VALID,1000.29,VALID,0,VALID,92.6541,VALID,0,VALID,22.9581,VALID,31,VALID,0.698828,
2010-06-10, 01:57:04,VALID,1000.31,VALID,0,VALID,92.7304,VALID,0,VALID,22.9988,VALID,31,VALID,0.654297,
2010-06-10, 01:58:04,VALID,1000.32,VALID,0,VALID,92.738,VALID,0,VALID,22.9988,VALID,31,VALID,0.676562,
2010-06-10, 01:59:04,VALID,1000.31,VALID,0,VALID,92.6923,VALID,0,VALID,22.9793,VALID,31,VALID,0.866016,
2010-06-10, 02:00:04,VALID,1000.29,VALID,0,VALID,92.7075,VALID,0,VALID,22.9988,VALID,31,VALID,1.02266,
2010-06-10, 02:01:04,VALID,1000.27,VALID,0,VALID,92.5397,VALID,0,VALID,22.9776,VALID,31,VALID,0.951953,
2010-06-10, 02:02:04,VALID,1000.25,VALID,0,VALID,92.4252,VALID,0,VALID,22.9793,VALID,31,VALID,0.902734,
2010-06-10, 02:03:04,VALID,1000.26,VALID,0,VALID,92.4328,VALID,0,VALID,22.9988,VALID,31,VALID,1.00977,
2010-06-10, 02:04:04,VALID,1000.25,VALID,0,VALID,92.3794,VALID,0,VALID,22.9793,VALID,31,VALID,0.821094,
2010-06-10, 02:05:04,VALID,1000.27,VALID,0,VALID,92.3718,VALID,0,VALID,22.9988,VALID,34,VALID,0.766797,
2010-06-10, 02:06:04,VALID,1000.25,VALID,0,VALID,92.1963,VALID,0,VALID,22.9793,VALID,45,VALID,0.853125,
2010-06-10, 02:07:04,VALID,1000.24,VALID,0,VALID,92.1353,VALID,0,VALID,22.9598,VALID,49,VALID,0.783594,
2010-06-10, 02:08:04,VALID,1000.25,VALID,0,VALID,92.1734,VALID,0,VALID,22.9385,VALID,49,VALID,0.648828,
2010-06-10, 02:09:04,VALID,1000.24,VALID,0,VALID,92.12,VALID,0,VALID,22.9598,VALID,49,VALID,0.317187,
2010-06-10, 02:10:04,VALID,1000.22,VALID,0,VALID,92.0361,VALID,0,VALID,22.9208,VALID,49,VALID,0.240234,
2010-06-10, 02:11:04,VALID,1000.22,VALID,0,VALID,92.1124,VALID,0,VALID,22.9208,VALID,49,VALID,0.0351563,
2010-06-10, 02:12:04,VALID,1000.19,VALID,0,VALID,92.2497,VALID,0,VALID,22.9208,VALID,49,VALID,0.230469,
2010-06-10, 02:13:04,VALID,1000.18,VALID,0,VALID,92.4176,VALID,0,VALID,22.9208,VALID,49,VALID,0.276563,
2010-06-10, 02:14:04,VALID,1000.17,VALID,0,VALID,92.532,VALID,0,VALID,22.9403,VALID,49,VALID,0.275781,
2010-06-10, 02:15:04,VALID,1000.17,VALID,0,VALID,92.5397,VALID,0,VALID,22.9581,VALID,49,VALID,0.378906,
2010-06-10, 02:16:04,VALID,1000.11,VALID,0,VALID,92.5473,VALID,0,VALID,22.9793,VALID,49,VALID,0.410937,
2010-06-10, 02:17:04,VALID,1000.1,VALID,0,VALID,92.5778,VALID,0,VALID,22.9793,VALID,49,VALID,0.375391,
2010-06-10, 02:18:04,VALID,1000.07,VALID,0,VALID,92.5702,VALID,0,VALID,22.9988,VALID,49,VALID,0.337891,
2010-06-10, 02:19:04,VALID,1000.04,VALID,0,VALID,92.6541,VALID,0,VALID,23.0183,VALID,49,VALID,0.424219,
2010-06-10, 02:20:04,VALID,1000.06,VALID,0,VALID,92.5931,VALID,0,VALID,23.0166,VALID,49,VALID,0.4125,
2010-06-10, 02:21:04,VALID,1000.04,VALID,0,VALID,92.5397,VALID,0,VALID,23.0378,VALID,49,VALID,0.4625,
2010-06-10, 02:22:04,VALID,1000.01,VALID,0,VALID,92.5778,VALID,0,VALID,23.0378,VALID,49,VALID,0.465234,
2010-06-10, 02:23:04,VALID,1000.02,VALID,0,VALID,92.5702,VALID,0,VALID,23.0378,VALID,49,VALID,0.512891,
2010-06-10, 02:24:04,VALID,1000.06,VALID,0,VALID,92.6083,VALID,0,VALID,23.0378,VALID,49,VALID,0.516406,
2010-06-10, 02:25:04,VALID,1000.06,VALID,0,VALID,92.5931,VALID,0,VALID,23.0378,VALID,49,VALID,0.566797,
2010-06-10, 02:26:04,VALID,1000.04,VALID,0,VALID,92.5015,VALID,0,VALID,23.0183,VALID,37,VALID,0.659766,
2010-06-10, 02:27:04,VALID,1000.05,VALID,0,VALID,92.3031,VALID,0,VALID,22.9776,VALID,25,VALID,0.679688,
2010-06-10, 02:28:04,VALID,1000.05,VALID,0,VALID,92.3566,VALID,0,VALID,22.9598,VALID,25,VALID,0.550781,
2010-06-10, 02:29:04,VALID,1000.05,VALID,0,VALID,92.41,VALID,0,VALID,22.9403,VALID,25,VALID,0.366797,
2010-06-10, 02:30:04,VALID,1000.02,VALID,0,VALID,92.41,VALID,0,VALID,22.9598,VALID,25,VALID,0.422656,
2010-06-10, 02:31:04,VALID,999.998,VALID,0,VALID,92.2803,VALID,0,VALID,22.9208,VALID,25,VALID,0.492578,
2010-06-10, 02:32:04,VALID,999.984,VALID,0,VALID,92.3642,VALID,0,VALID,22.9208,VALID,25,VALID,0.607813,
2010-06-10, 02:33:04,VALID,999.982,VALID,0,VALID,92.471,VALID,0,VALID,22.9208,VALID,25,VALID,0.500781,
2010-06-10, 02:34:04,VALID,999.974,VALID,0,VALID,92.6007,VALID,0,VALID,22.9208,VALID,34,VALID,0.723828,
2010-06-10, 02:35:04,VALID,999.933,VALID,0,VALID,92.5549,VALID,0,VALID,22.9403,VALID,35,VALID,0.690234,
2010-06-10, 02:36:04,VALID,999.947,VALID,0,VALID,92.5549,VALID,0,VALID,22.9598,VALID,35,VALID,0.687891,
2010-06-10, 02:37:04,VALID,999.913,VALID,0,VALID,92.5626,VALID,0,VALID,22.9598,VALID,35,VALID,0.777344,
2010-06-10, 02:38:04,VALID,999.95,VALID,0,VALID,92.5549,VALID,0,VALID,22.9988,VALID,35,VALID,0.774219,
2010-06-10, 02:39:04,VALID,999.938,VALID,0,VALID,92.5091,VALID,0,VALID,22.9988,VALID,35,VALID,0.708984,
2010-06-10, 02:40:04,VALID,999.921,VALID,0,VALID,92.4786,VALID,0,VALID,23.0591,VALID,35,VALID,0.746094,
2010-06-10, 02:41:04,VALID,999.935,VALID,0,VALID,92.3642,VALID,0,VALID,23.0183,VALID,36,VALID,0.559766,
2010-06-10, 02:42:04,VALID,999.929,VALID,0,VALID,92.1734,VALID,0,VALID,23.0183,VALID,36,VALID,0.404297,
2010-06-10, 02:43:04,VALID,999.942,VALID,0,VALID,92.0437,VALID,0,VALID,22.9581,VALID,36,VALID,0.268359,
2010-06-10, 02:44:04,VALID,999.909,VALID,0,VALID,92.0361,VALID,0,VALID,22.9385,VALID,36,VALID,0,
2010-06-10, 02:45:04,VALID,999.903,VALID,0,VALID,92.0666,VALID,0,VALID,22.9208,VALID,36,VALID,0.015625,
2010-06-10, 02:46:04,VALID,999.876,VALID,0,VALID,92.2421,VALID,0,VALID,22.9208,VALID,36,VALID,0.248047,
2010-06-10, 02:47:04,VALID,999.878,VALID,0,VALID,92.4405,VALID,0,VALID,22.9208,VALID,36,VALID,0.234766,
2010-06-10, 02:48:04,VALID,999.861,VALID,0,VALID,92.5626,VALID,0,VALID,22.9013,VALID,36,VALID,0.171484,
2010-06-10, 02:49:04,VALID,999.853,VALID,0,VALID,92.6846,VALID,0,VALID,22.9208,VALID,36,VALID,0.242969,
2010-06-10, 02:50:04,VALID,999.848,VALID,0,VALID,92.7457,VALID,0,VALID,22.9208,VALID,36,VALID,0.261719,
2010-06-10, 02:51:04,VALID,999.843,VALID,0,VALID,92.5702,VALID,0,VALID,22.9013,VALID,36,VALID,0.330078,
2010-06-10, 02:52:04,VALID,999.806,VALID,0,VALID,92.3642,VALID,0,VALID,22.8623,VALID,36,VALID,0.578906,
2010-06-10, 02:53:04,VALID,999.816,VALID,0,VALID,92.4939,VALID,0,VALID,22.8427,VALID,35,VALID,0.676562,
2010-06-10, 02:54:04,VALID,999.8,VALID,0,VALID,92.6617,VALID,0,VALID,22.8623,VALID,12,VALID,0.869141,
2010-06-10, 02:55:04,VALID,999.771,VALID,0,VALID,92.6846,VALID,0,VALID,22.8427,VALID,353,VALID,0.598047,
2010-06-10, 02:56:04,VALID,999.722,VALID,0,VALID,92.7304,VALID,0,VALID,22.8623,VALID,353,VALID,0.599219,
2010-06-10, 02:57:04,VALID,999.718,VALID,0,VALID,92.5854,VALID,0,VALID,22.8623,VALID,353,VALID,0.441797,
2010-06-10, 02:58:04,VALID,999.7,VALID,0,VALID,92.5244,VALID,0,VALID,22.8427,VALID,353,VALID,0.335547,
2010-06-10, 02:59:04,VALID,999.712,VALID,0,VALID,92.6999,VALID,0,VALID,22.8427,VALID,353,VALID,0.401953,
2010-06-10, 03:00:04,VALID,999.711,VALID,0,VALID,92.8296,VALID,0,VALID,22.8818,VALID,353,VALID,0.293359,
2010-06-10, 03:01:04,VALID,999.709,VALID,0,VALID,92.8983,VALID,0,VALID,22.8818,VALID,353,VALID,0.311328,
2010-06-10, 03:02:04,VALID,999.684,VALID,0,VALID,92.944,VALID,0,VALID,22.8818,VALID,353,VALID,0.4625,
2010-06-10, 03:03:04,VALID,999.688,VALID,0,VALID,92.9593,VALID,0,VALID,22.903,VALID,353,VALID,0.402344,
2010-06-10, 03:04:04,VALID,999.69,VALID,0,VALID,92.944,VALID,0,VALID,22.8818,VALID,353,VALID,0.390234,
2010-06-10, 03:05:04,VALID,999.734,VALID,0,VALID,92.9669,VALID,0,VALID,22.9013,VALID,353,VALID,0.360547,
2010-06-10, 03:06:04,VALID,999.737,VALID,0,VALID,92.9593,VALID,0,VALID,22.8818,VALID,353,VALID,0.184375,
2010-06-10, 03:07:04,VALID,999.769,VALID,0,VALID,92.9517,VALID,0,VALID,22.8623,VALID,353,VALID,0,
2010-06-10, 03:08:04,VALID,999.755,VALID,0,VALID,92.9364,VALID,0,VALID,22.8623,VALID,353,VALID,0,
2010-06-10, 03:09:04,VALID,999.771,VALID,0,VALID,92.883,VALID,0,VALID,22.8427,VALID,353,VALID,0.0894531,
2010-06-10, 03:10:04,VALID,999.812,VALID,0,VALID,92.944,VALID,0,VALID,22.8232,VALID,353,VALID,0.240625,
2010-06-10, 03:11:04,VALID,999.801,VALID,0,VALID,93.0203,VALID,0,VALID,22.8232,VALID,353,VALID,0.246875,
2010-06-10, 03:12:04,VALID,999.786,VALID,0,VALID,93.1043,VALID,0,VALID,22.8427,VALID,353,VALID,0.182422,
2010-06-10, 03:13:04,VALID,999.814,VALID,0,VALID,93.1119,VALID,0,VALID,22.8427,VALID,353,VALID,0.246484,
2010-06-10, 03:14:04,VALID,999.808,VALID,0,VALID,93.1348,VALID,0,VALID,22.8427,VALID,353,VALID,0.373828,
2010-06-10, 03:15:04,VALID,999.849,VALID,0,VALID,93.028,VALID,0,VALID,22.8232,VALID,77,VALID,0.823047,
2010-06-10, 03:16:04,VALID,999.821,VALID,0,VALID,93.0127,VALID,0,VALID,22.8427,VALID,77,VALID,0.333594,
2010-06-10, 03:17:04,VALID,999.78,VALID,0,VALID,92.9898,VALID,0,VALID,22.9013,VALID,77,VALID,0.267188,
2010-06-10, 03:18:04,VALID,999.761,VALID,0,VALID,92.8983,VALID,0,VALID,22.9208,VALID,77,VALID,0.200391,
2010-06-10, 03:19:04,VALID,999.758,VALID,0,VALID,92.7533,VALID,0,VALID,22.9598,VALID,77,VALID,0.0121094,
2010-06-10, 03:20:04,VALID,999.748,VALID,0,VALID,92.4252,VALID,0,VALID,22.9403,VALID,77,VALID,0,
2010-06-10, 03:21:04,VALID,999.741,VALID,0,VALID,92.3031,VALID,0,VALID,22.9403,VALID,77,VALID,0,
2010-06-10, 03:22:04,VALID,999.766,VALID,0,VALID,92.3413,VALID,0,VALID,22.9403,VALID,77,VALID,0,
2010-06-10, 03:23:04,VALID,999.734,VALID,0,VALID,92.3947,VALID,0,VALID,22.9403,VALID,77,VALID,0.137891,
2010-06-10, 03:24:04,VALID,999.745,VALID,0,VALID,92.3718,VALID,0,VALID,22.9403,VALID,77,VALID,0.0785156,
2010-06-10, 03:25:04,VALID,999.746,VALID,0,VALID,92.4176,VALID,0,VALID,22.9598,VALID,77,VALID,0,
2010-06-10, 03:26:04,VALID,999.724,VALID,0,VALID,92.4786,VALID,0,VALID,22.9988,VALID,77,VALID,0,
2010-06-10, 03:27:04,VALID,999.721,VALID,0,VALID,92.4863,VALID,0,VALID,23.0183,VALID,77,VALID,0.251953,
2010-06-10, 03:28:04,VALID,999.733,VALID,0,VALID,92.4252,VALID,0,VALID,23.0378,VALID,77,VALID,0.357812,
2010-06-10, 03:29:04,VALID,999.725,VALID,0,VALID,92.3337,VALID,0,VALID,23.0378,VALID,77,VALID,0.308984,
2010-06-10, 03:30:04,VALID,999.724,VALID,0,VALID,92.204,VALID,0,VALID,23.0769,VALID,77,VALID,0.187109,
2010-06-10, 03:31:04,VALID,999.758,VALID,0,VALID,92.0437,VALID,0,VALID,23.0769,VALID,77,VALID,0.261328,
2010-06-10, 03:32:04,VALID,999.752,VALID,0,VALID,92.0056,VALID,0,VALID,23.0964,VALID,77,VALID,0.0125,
2010-06-10, 03:33:04,VALID,999.777,VALID,0,VALID,91.9674,VALID,0,VALID,23.0769,VALID,77,VALID,0.173047,
2010-06-10, 03:34:04,VALID,999.793,VALID,0,VALID,92.0361,VALID,0,VALID,23.0946,VALID,77,VALID,0.211719,
2010-06-10, 03:35:04,VALID,999.778,VALID,0,VALID,92.0437,VALID,0,VALID,23.1354,VALID,37,VALID,0.301953,
2010-06-10, 03:36:04,VALID,999.798,VALID,0,VALID,91.7233,VALID,0,VALID,23.1159,VALID,37,VALID,0.0980469,
2010-06-10, 03:37:04,VALID,999.818,VALID,0,VALID,91.502,VALID,0,VALID,23.1159,VALID,37,VALID,0.349609,
2010-06-10, 03:38:04,VALID,999.826,VALID,0,VALID,91.3494,VALID,0,VALID,23.0361,VALID,23,VALID,0.442187,
2010-06-10, 03:39:04,VALID,999.838,VALID,0,VALID,91.2808,VALID,0,VALID,22.9776,VALID,23,VALID,0.355859,
2010-06-10, 03:40:04,VALID,999.808,VALID,0,VALID,91.2121,VALID,0.112286,VALID,22.919,VALID,23,VALID,0.397656,
2010-06-10, 03:41:04,VALID,999.851,VALID,0,VALID,91.647,VALID,0,VALID,22.9208,VALID,23,VALID,0.263672,
2010-06-10, 03:42:04,VALID,999.854,VALID,0,VALID,91.8988,VALID,0,VALID,22.8623,VALID,23,VALID,0.416016,
2010-06-10, 03:43:04,VALID,999.848,VALID,0,VALID,92.0361,VALID,0,VALID,22.8623,VALID,23,VALID,0.359766,
2010-06-10, 03:44:04,VALID,999.887,VALID,0,VALID,92.2803,VALID,0,VALID,22.8818,VALID,61,VALID,0.554297,
2010-06-10, 03:45:04,VALID,999.887,VALID,0,VALID,92.3566,VALID,0,VALID,22.9013,VALID,91,VALID,0.666016,
2010-06-10, 03:46:04,VALID,999.87,VALID,0,VALID,92.5244,VALID,0.112286,VALID,22.9988,VALID,91,VALID,0.688672,